GW0714 Weather Reports


time (UTC)temp
C
wind
direction
speed
KPH
gust
KPH
rain 1hr
cm
rain 24hr
cm
rain mn
cm
humidity
%
barometer
mb
20260506114601 11 0 0.0 0.0 0.00 0.53 0.08 93 1019.5
20260506114030 11 0 0.0 0.0 0.00 0.53 0.08 93 1019.5
20260506113530 11 0 0.0 0.0 0.00 0.53 0.08 93 1019.4
20260506113038 11 0 0.0 0.0 0.00 0.53 0.08 93 1019.4
20260506112532 11 0 0.0 0.0 0.00 0.53 0.08 93 1019.4
20260506112029 11 0 0.0 0.0 0.00 0.53 0.08 93 1019.4
20260506111542 11 0 0.0 0.0 0.00 0.53 0.08 93 1019.3
20260506111030 11 0 0.0 0.0 0.00 0.53 0.08 93 1019.3
20260506110530 11 0 0.0 0.0 0.00 0.53 0.08 93 1019.2
20260506110038 11 0 0.0 1.6 0.00 0.53 0.08 93 1019.1
20260506105531 11 0 0.0 1.6 0.03 0.58 0.08 93 1019.0
20260506105031 11 0 0.0 1.6 0.03 0.58 0.08 93 1019.1
20260506104541 11 0 0.0 0.0 0.03 0.58 0.08 93 1019.0
20260506104030 11 0 0.0 0.0 0.03 0.58 0.08 93 1019.1
20260506103530 11 0 0.0 0.0 0.03 0.58 0.08 93 1019.1
20260506103042 11 0 0.0 0.0 0.03 0.58 0.08 93 1018.9
20260506102534 11 0 0.0 0.0 0.03 0.58 0.08 93 1018.9
20260506102029 11 0 0.0 0.0 0.03 0.58 0.08 93 1018.8
20260506101541 11 0 0.0 0.0 0.03 0.58 0.08 93 1018.8
20260506101028 11 0 0.0 0.0 0.03 0.58 0.08 93 1018.8
20260506100530 11 0 0.0 0.0 0.03 0.58 0.08 93 1018.7
20260506100040 11 0 0.0 0.0 0.03 0.58 0.08 93 1018.7
20260506095530 11 0 0.0 0.0 0.00 0.61 0.05 93 1018.8
20260506095031 11 0 0.0 0.0 0.00 0.61 0.05 92 1018.8
20260506094544 11 0 0.0 0.0 0.00 0.61 0.05 92 1018.8
20260506094029 11 0 0.0 0.0 0.00 0.61 0.05 92 1018.7
20260506093532 11 0 0.0 0.0 0.00 0.61 0.05 92 1018.7
20260506093100 11 0 0.0 0.0 0.00 0.61 0.05 92 1018.7
20260506092530 11 0 0.0 0.0 0.03 0.61 0.05 92 1018.7
20260506092030 11 0 0.0 0.0 0.03 0.61 0.05 92 1018.7
20260506091547 11 0 0.0 0.0 0.03 0.61 0.05 92 1018.7
20260506091030 11 0 0.0 1.6 0.03 0.61 0.05 92 1018.7
20260506090529 11 0 0.0 1.6 0.03 0.61 0.05 92 1018.8
20260506090042 11 0 0.0 1.6 0.03 0.61 0.05 92 1018.7
20260506085530 11 0 0.0 0.0 0.03 0.69 0.05 91 1018.7
20260506085030 11 0 0.0 0.0 0.03 0.69 0.05 91 1018.9
20260506084538 11 0 0.0 1.6 0.03 0.69 0.05 91 1018.8
20260506084031 11 0 0.0 3.2 0.03 0.69 0.05 91 1018.9
20260506083531 11 0 0.0 3.2 0.03 0.69 0.05 91 1018.8
20260506083040 11 0 0.0 1.6 0.03 0.69 0.05 91 1018.9
20260506082531 12 0 0.0 1.6 0.00 0.66 0.03 91 1018.8
20260506082030 12 0 0.0 3.2 0.03 0.66 0.03 91 1018.7
20260506081548 12 0 0.0 3.2 0.03 0.66 0.03 91 1018.8
20260506081029 12 0 0.0 3.2 0.03 0.66 0.03 90 1018.7
20260506080529 12 0 0.0 3.2 0.03 0.66 0.03 90 1018.7
20260506073041 12 0 0.0 0.0 0.03 0.69 0.03 88 1018.5
20260506072531 12 0 0.0 0.0 0.05 0.69 0.03 88 1018.4
20260506072029 12 0 0.0 0.0 0.03 0.66 0.00 88 1018.4
20260506071542 12 0 0.0 0.0 0.03 0.66 0.00 88 1018.4
20260506071030 12 0 0.0 0.0 0.03 0.66 0.00 88 1018.3
20260506070533 12 0 0.0 1.6 0.03 0.66 0.00 88 1018.2
20260506062030 12 0 0.0 0.0 0.03 0.66 0.64 89 1018.2
20260506061556 12 0 0.0 0.0 0.03 0.66 0.64 89 1018.0
20260506061030 12 0 0.0 0.0 0.03 0.66 0.64 89 1018.0
20260506060530 12 0 0.0 0.0 0.05 0.66 0.64 89 1018.0
20260506051030 12 0 0.0 0.0 0.05 0.64 0.61 88 1017.4
20260506050530 12 0 0.0 0.0 0.03 0.61 0.58 88 1017.4
20260506045029 12 0 0.0 1.6 0.05 0.64 0.58 88 1017.4
20260506044541 12 0 0.0 1.6 0.05 0.64 0.58 88 1017.4
20260506044031 12 0 0.0 1.6 0.05 0.64 0.58 88 1017.3
20260506043529 12 0 0.0 0.0 0.05 0.64 0.58 88 1017.2
20260506043038 12 0 0.0 0.0 0.05 0.64 0.58 88 1017.2
20260506042532 12 0 0.0 0.0 0.03 0.61 0.56 87 1017.2
20260506042032 12 0 0.0 0.0 0.03 0.61 0.56 87 1017.2
20260506041536 12 0 0.0 0.0 0.05 0.61 0.56 87 1017.1
20260506041032 12 0 0.0 1.6 0.05 0.61 0.56 87 1017.0
20260506040534 12 0 0.0 1.6 0.05 0.61 0.56 87 1017.0
20260506040038 12 0 0.0 0.0 0.05 0.61 0.56 87 1016.9
20260506035532 12 0 0.0 1.6 0.05 0.61 0.56 87 1016.8
20260506035029 12 0 0.0 3.2 0.03 0.58 0.53 86 1016.8
20260506034544 12 0 0.0 4.8 0.03 0.58 0.53 86 1016.6
20260506034030 12 0 0.0 4.8 0.03 0.58 0.53 86 1016.5
20260506033529 12 331 0.0 4.8 0.03 0.58 0.53 86 1016.4
20260506033043 12 0 0.0 1.6 0.05 0.58 0.53 86 1016.5
20260506032532 12 0 0.0 0.0 0.05 0.58 0.53 86 1016.4
20260506032033 12 0 0.0 0.0 0.05 0.58 0.53 86 1016.6
20260506031542 12 0 0.0 0.0 0.03 0.56 0.51 86 1016.5
20260506031032 12 0 0.0 0.0 0.03 0.56 0.51 86 1016.3
20260506030533 12 0 0.0 1.6 0.03 0.56 0.51 85 1016.3
20260506030038 12 0 0.0 1.6 0.03 0.56 0.51 85 1016.4
20260506025533 12 0 0.0 4.8 0.03 0.58 0.51 85 1016.2
20260506025031 12 0 0.0 4.8 0.03 0.58 0.51 85 1016.2
20260506024540 12 0 0.0 4.8 0.03 0.58 0.51 85 1016.1
20260506024029 13 0 0.0 6.4 0.05 0.58 0.51 84 1016.0
20260506023533 13 343 0.0 6.4 0.05 0.58 0.51 84 1015.9
20260506023048 13 335 1.6 8.0 0.03 0.56 0.48 84 1015.8
20260506022531 13 337 0.0 8.0 0.03 0.56 0.48 84 1015.8
20260506022029 13 334 3.2 8.0 0.03 0.56 0.48 83 1015.7
20260506021533 13 329 0.0 3.2 0.03 0.56 0.48 83 1015.6
20260506021029 13 289 0.0 1.6 0.03 0.56 0.48 82 1015.6
20260506020530 13 0 0.0 4.8 0.03 0.56 0.48 82 1015.6
20260506020108 13 0 0.0 8.0 0.03 0.56 0.48 82 1015.4
20260506015529 13 295 1.6 8.0 0.03 0.56 0.48 81 1015.3
20260506015032 13 290 0.0 6.4 0.03 0.56 0.48 81 1015.3
20260506014542 13 0 1.6 6.4 0.03 0.56 0.48 80 1015.3
20260506014028 13 287 0.0 3.2 0.00 0.53 0.46 80 1015.3
20260506013531 14 327 0.0 6.4 0.00 0.53 0.46 81 1015.4
20260506013039 14 0 1.6 6.4 0.00 0.53 0.46 80 1015.3
20260506012531 14 283 1.6 9.7 0.00 0.53 0.46 80 1015.2
20260506012031 14 0 1.6 9.7 0.00 0.53 0.46 80 1015.4
20260506011540 14 0 0.0 6.4 0.00 0.53 0.46 80 1015.4
20260506011030 14 298 0.0 6.4 0.00 0.53 0.46 80 1015.3
20260506010531 14 335 0.0 3.2 0.00 0.53 0.46 79 1015.3
20260506010037 14 0 0.0 0.0 0.00 0.53 0.46 80 1015.2
20260506005530 13 0 0.0 0.0 0.00 0.53 0.46 80 1015.3
20260506005029 13 0 0.0 0.0 0.00 0.53 0.46 81 1015.4
20260506004540 13 0 0.0 0.0 0.03 0.53 0.46 81 1015.4
20260506004034 13 0 0.0 0.0 0.03 0.53 0.46 81 1015.4
20260506003533 13 0 0.0 0.0 0.03 0.53 0.46 82 1015.3
20260506003043 13 0 0.0 0.0 0.03 0.53 0.46 82 1015.3
20260506002528 13 0 0.0 0.0 0.03 0.53 0.46 82 1015.2
20260506002030 13 0 0.0 0.0 0.03 0.53 0.46 84 1015.2
20260506001546 13 0 0.0 0.0 0.03 0.53 0.46 84 1015.2
20260506001029 13 0 0.0 0.0 0.03 0.53 0.46 83 1015.2
20260506000530 13 0 0.0 0.0 0.03 0.53 0.46 83 1015.0
20260506000054 13 0 0.0 0.0 0.03 0.53 0.46 82 1015.0
20260505235528 13 0 0.0 0.0 0.03 0.56 0.46 82 1015.1
20260505235033 13 0 0.0 0.0 0.03 0.56 0.46 82 1015.2
20260505234540 13 0 0.0 3.2 0.00 0.53 0.43 82 1015.1
20260505234031 13 0 0.0 3.2 0.00 0.53 0.43 81 1015.1
20260505233530 13 0 0.0 1.6 0.00 0.53 0.43 82 1015.1
20260505233035 13 352 0.0 3.2 0.00 0.53 0.43 82 1015.1
20260505232529 13 0 0.0 3.2 0.00 0.53 0.43 82 1015.1
20260505232030 13 0 0.0 4.8 0.00 0.53 0.43 83 1015.1
20260505231538 13 0 0.0 4.8 0.00 0.53 0.43 82 1015.1
20260505231033 13 360 0.0 4.8 0.00 0.53 0.43 84 1015.1
20260505230529 13 0 0.0 3.2 0.00 0.53 0.43 84 1015.1
20260505230046 13 180 0.0 1.6 0.00 0.53 0.43 84 1015.2
20260505225530 13 0 0.0 3.2 0.00 0.56 0.43 84 1015.2
20260505225031 13 0 0.0 8.0 0.00 0.56 0.43 83 1015.1
20260505224545 13 0 1.6 8.0 0.00 0.56 0.43 82 1015.2
20260505224030 13 0 1.6 6.4 0.00 0.56 0.43 81 1015.2
20260505223530 13 0 0.0 6.4 0.00 0.56 0.43 81 1015.2
20260505223040 13 17 0.0 6.4 0.00 0.56 0.43 81 1015.2
20260505222530 13 0 1.6 6.4 0.00 0.56 0.43 82 1015.1
20260505222028 13 100 0.0 4.8 0.00 0.56 0.43 82 1015.2
20260505221547 13 105 0.0 8.0 0.00 0.56 0.43 83 1015.3
20260505221030 13 0 0.0 8.0 0.00 0.56 0.43 83 1015.3
20260505220530 13 157 3.2 8.0 0.00 0.56 0.43 81 1015.2
20260505220034 13 336 0.0 4.8 0.03 0.56 0.43 84 1015.3
20260505215534 13 138 0.0 8.0 0.03 0.58 0.43 84 1015.4
20260505215032 13 0 1.6 8.0 0.03 0.58 0.43 82 1015.4
20260505214539 13 161 3.2 8.0 0.03 0.58 0.43 80 1015.5
20260505214029 13 49 1.6 8.0 0.03 0.58 0.43 82 1015.5
20260505213528 13 0 0.0 6.4 0.03 0.58 0.43 82 1015.6
20260505213041 13 350 0.0 6.4 0.03 0.58 0.43 83 1015.6
20260505212531 13 121 0.0 4.8 0.03 0.58 0.43 84 1015.6
20260505212030 13 0 0.0 6.4 0.03 0.58 0.43 84 1015.5
20260505211608 12 17 0.0 6.4 0.03 0.58 0.43 85 1015.6
20260505211029 12 0 1.6 4.8 0.03 0.58 0.43 83 1015.6
20260505210528 12 0 0.0 3.2 0.03 0.58 0.43 85 1015.5
20260505210043 12 0 0.0 4.8 0.00 0.56 0.41 87 1015.6
20260505205533 12 0 0.0 4.8 0.00 0.56 0.41 87 1015.5
20260505205030 12 156 1.6 8.0 0.00 0.56 0.41 86 1015.4
20260505204553 12 138 0.0 8.0 0.00 0.56 0.41 87 1015.5
20260505204028 12 139 0.0 4.8 0.00 0.56 0.41 88 1015.5
20260505203529 12 0 1.6 8.0 0.00 0.56 0.41 87 1015.4
20260505203042 11 165 1.6 8.0 0.00 0.56 0.41 88 1015.4
20260505202530 11 157 3.2 8.0 0.00 0.56 0.41 87 1015.5
20260505202033 11 0 1.6 6.4 0.00 0.56 0.41 87 1015.5
20260505201541 11 170 1.6 6.4 0.00 0.56 0.41 87 1015.5
20260505201029 11 136 1.6 8.0 0.00 0.56 0.41 87 1015.6
20260505200531 12 0 1.6 8.0 0.00 0.56 0.41 86 1015.6
20260505200039 12 155 1.6 6.4 0.00 0.56 0.41 86 1015.5
20260505195530 12 0 0.0 6.4 0.00 0.56 0.41 86 1015.6
20260505195029 12 144 1.6 6.4 0.00 0.56 0.41 84 1015.6
20260505194538 12 0 1.6 6.4 0.03 0.56 0.41 84 1015.5
20260505194035 12 352 1.6 6.4 0.03 0.56 0.41 83 1015.6
20260505193530 12 333 1.6 6.4 0.03 0.56 0.41 83 1015.7
20260505193045 12 323 0.0 6.4 0.03 0.56 0.41 84 1015.5
20260505192534 12 331 1.6 6.4 0.03 0.56 0.41 83 1015.6
20260505192030 12 327 3.2 6.4 0.03 0.56 0.41 84 1015.5
20260505191536 12 0 1.6 6.4 0.03 0.56 0.41 84 1015.6
20260505191030 12 329 0.0 6.4 0.03 0.56 0.41 84 1015.5
20260505190531 12 339 0.0 4.8 0.03 0.56 0.41 85 1015.5
20260505190038 12 0 0.0 3.2 0.03 0.56 0.41 83 1015.4
20260505185530 12 0 0.0 6.4 0.03 0.56 0.41 83 1015.4
20260505185032 12 360 0.0 6.4 0.03 0.56 0.41 83 1015.4
20260505184542 12 98 0.0 6.4 0.00 0.53 0.38 83 1015.3
20260505184028 12 338 1.6 6.4 0.00 0.53 0.38 83 1015.4
20260505183531 12 0 0.0 4.8 0.00 0.53 0.38 82 1015.4
20260505183036 12 0 0.0 4.8 0.00 0.53 0.38 81 1015.4
20260505182530 12 153 0.0 4.8 0.03 0.53 0.38 82 1015.4
20260505182029 13 45 0.0 6.4 0.03 0.53 0.38 83 1015.3
20260505181554 13 0 1.6 6.4 0.03 0.53 0.38 81 1015.3
20260505181033 12 352 1.6 6.4 0.03 0.53 0.38 82 1015.2
20260505180531 12 360 1.6 8.0 0.03 0.53 0.38 83 1015.2
20260505180033 12 254 0.0 8.0 0.03 0.53 0.38 84 1015.2
20260505175531 12 148 0.0 4.8 0.03 0.53 0.38 84 1015.2
20260505175029 12 0 1.6 4.8 0.03 0.53 0.38 83 1015.1
20260505174538 12 0 0.0 6.4 0.03 0.53 0.38 85 1015.2
20260505174031 12 0 1.6 6.4 0.03 0.53 0.38 82 1015.2
20260505173529 12 350 3.2 6.4 0.03 0.53 0.38 84 1015.1
20260505173041 12 0 0.0 4.8 0.03 0.53 0.38 86 1015.0
20260505172531 11 0 0.0 6.4 0.00 0.51 0.36 85 1015.1
20260505172031 11 342 3.2 6.4 0.00 0.51 0.36 85 1015.2
20260505171542 11 13 1.6 6.4 0.00 0.51 0.36 85 1015.2
20260505171030 11 331 0.0 6.4 0.00 0.51 0.36 89 1015.2
20260505170531 11 325 1.6 6.4 0.03 0.51 0.36 89 1015.0
20260505170038 11 333 0.0 4.8 0.03 0.51 0.36 91 1015.1
20260505165530 11 0 0.0 4.8 0.03 0.51 0.36 91 1015.1
20260505165032 10 334 1.6 4.8 0.03 0.51 0.36 90 1015.1
20260505164535 10 327 0.0 4.8 0.03 0.51 0.36 92 1015.1
20260505164030 10 329 1.6 4.8 0.03 0.51 0.36 92 1015.1
20260505163531 10 0 0.0 4.8 0.03 0.51 0.36 94 1015.0
20260505163046 10 0 1.6 4.8 0.03 0.51 0.36 94 1015.0
20260505162528 10 0 0.0 6.4 0.03 0.51 0.36 95 1015.0
20260505162031 10 344 1.6 6.4 0.03 0.51 0.36 95 1014.9
20260505161541 9 348 1.6 6.4 0.03 0.51 0.36 94 1014.9
20260505161030 9 333 3.2 6.4 0.03 0.51 0.36 95 1014.8
20260505160531 9 360 1.6 6.4 0.00 0.48 0.33 95 1014.7
20260505153046 8 0 0.0 6.4 0.03 0.48 0.33 96 1014.7
20260505152529 8 0 0.0 4.8 0.03 0.48 0.33 96 1014.7
20260505152029 8 0 0.0 4.8 0.03 0.48 0.33 96 1014.6
20260505151545 8 311 0.0 4.8 0.03 0.48 0.33 96 1014.5
20260505151030 8 0 0.0 4.8 0.03 0.48 0.33 96 1014.6
20260505150530 8 0 0.0 4.8 0.03 0.48 0.33 96 1014.5
20260505140530 8 0 0.0 4.8 0.03 0.46 0.30 96 1013.8
20260505125029 8 265 0.0 1.6 0.05 0.43 0.28 96 1013.5
20260505124538 8 0 0.0 3.2 0.03 0.41 0.25 96 1013.6
20260505124033 8 0 0.0 3.2 0.03 0.41 0.25 96 1013.5
20260505123530 8 0 0.0 3.2 0.03 0.41 0.25 96 1013.4
20260505123048 8 0 0.0 1.6 0.03 0.41 0.25 96 1013.4
20260505122530 8 0 0.0 3.2 0.03 0.41 0.25 96 1013.4
20260505122031 8 0 0.0 3.2 0.05 0.41 0.25 96 1013.3
20260505121542 8 0 0.0 3.2 0.05 0.41 0.25 96 1013.3
20260505121030 8 0 0.0 3.2 0.05 0.41 0.25 96 1013.4
20260505120530 8 265 0.0 3.2 0.05 0.41 0.25 96 1013.3
20260505115529 8 0 0.0 3.2 0.03 0.38 0.23 96 1013.4
20260505115027 8 0 0.0 3.2 0.03 0.38 0.23 96 1013.4